Weather History for Chandler, OK

Change the Weather History Date:

Friday, October 19, 2012

  Actual Average (KCUH) Record (KCUH)
Temperature  
Mean Temperature 61 °F -  
Max Temperature 71 °F 70 °F 89 °F (1963)
Min Temperature 50 °F 45 °F 29 °F (1989)
Degree Days  
Heating Degree Days 4    
Growing Degree Days 11 (Base 50)    
Moisture  
Dew Point 33 °F    
Average Humidity 36    
Maximum Humidity 66    
Minimum Humidity 23    
Precipitation  
Precipitation 0.00 in - - ()
Sea Level Pressure  
Sea Level Pressure 29.91 in    
Wind  
Wind Speed 9 mph (WSW)    
Max Wind Speed 13 mph    
Max Gust Speed 18 mph    
Visibility 10 miles    
Events      
Averages and records for this station are not official NWS values.
T = Trace of Precipitation, MM = Missing Value Source: NWS Daily Summary

Daily Weather History Graph

Daily Weather History Graph

Search for Another Location

Airport:

Trip Planner

Search our weather history database for the weather conditions in past years. The results will help you decide how hot, cold, wet, or windy it might be!

Date:

Astronomy

Oct. 19, 2012 Rise Set
Actual Time 7:37 AM CDT 6:45 PM CDT
Civil Twilight 7:11 AM CDT 7:11 PM CDT
Nautical Twilight 6:42 AM CDT 7:41 PM CDT
Astronomical Twilight 6:12 AM CDT 8:11 PM CDT
Moon 12:15 PM CDT (10/19) 10:32 PM CDT (10/19)
Length of Visible Light 11h 59m
Length of Day
11h 08m
Waxing Crescent, 24% of the Moon is Illuminated
Oct 19
Waxing Crescent
Oct 21
First Quarter
Oct 29
Full
Nov 6
Last Quarter
Nov 13
New

Hourly Weather History & Observations

Time (CDT) Temp. Dew Point Humidity Pressure Visibility Wind Dir Wind Speed Gust Speed Precip Events Conditions
1:15 AM 55.4 °F 32.0 °F 41% 29.91 in 7.0 mi West 8.1 mph - N/A   Scattered Clouds
1:35 AM 55.4 °F 32.0 °F 41% 29.90 in 7.0 mi West 9.2 mph - N/A   Clear
1:55 AM 55.4 °F 32.0 °F 41% 29.90 in 7.0 mi West 9.2 mph - N/A   Clear
2:15 AM 55.4 °F 32.0 °F 41% 29.90 in 7.0 mi WNW 12.7 mph - N/A   Clear
2:35 AM 57.2 °F 32.0 °F 38% 29.90 in 7.0 mi WNW 11.5 mph - N/A   Clear
2:55 AM 55.4 °F 32.0 °F 41% 29.90 in 7.0 mi WNW 12.7 mph - N/A   Clear
3:15 AM 55.4 °F 30.2 °F 38% 29.91 in 10.0 mi WNW 11.5 mph 16.1 mph N/A   Clear
3:35 AM 55.4 °F 30.2 °F 38% 29.90 in 10.0 mi West 10.4 mph - N/A   Clear
3:55 AM 53.6 °F 30.2 °F 41% 29.90 in 10.0 mi WNW 10.4 mph - N/A   Clear
4:15 AM 53.6 °F 30.2 °F 41% 29.90 in 10.0 mi WNW 11.5 mph - N/A   Clear
4:35 AM 53.6 °F 30.2 °F 41% 29.91 in 10.0 mi WNW 10.4 mph 16.1 mph N/A   Clear
4:55 AM 51.8 °F 30.2 °F 44% 29.91 in 10.0 mi West 9.2 mph - N/A   Clear
5:15 AM 51.8 °F 30.2 °F 44% 29.92 in 10.0 mi WNW 11.5 mph - N/A   Clear
5:35 AM 53.6 °F 28.4 °F 38% 29.92 in 10.0 mi West 12.7 mph 18.4 mph N/A   Clear
5:55 AM 51.8 °F 30.2 °F 44% 29.92 in 10.0 mi West 12.7 mph - N/A   Clear
6:15 AM 51.8 °F 30.2 °F 44% 29.93 in 10.0 mi WNW 10.4 mph 16.1 mph N/A   Clear
6:35 AM 51.8 °F 30.2 °F 44% 29.93 in 10.0 mi WNW 10.4 mph - N/A   Clear
6:55 AM 51.8 °F 28.4 °F 41% 29.93 in 10.0 mi WNW 11.5 mph - N/A   Clear
7:15 AM 51.8 °F 28.4 °F 41% 29.94 in 10.0 mi WNW 11.5 mph - N/A   Clear
7:35 AM 51.8 °F 30.2 °F 44% 29.95 in 10.0 mi WNW 11.5 mph - N/A   Clear
7:55 AM 51.8 °F 30.2 °F 44% 29.95 in 10.0 mi WNW 10.4 mph - N/A   Clear
8:15 AM 53.6 °F 30.2 °F 41% 29.95 in 10.0 mi NW 10.4 mph - N/A   Clear
8:35 AM 53.6 °F 30.2 °F 41% 29.95 in 10.0 mi North - - N/A   Clear
8:55 AM 55.4 °F 30.2 °F 38% 29.96 in 10.0 mi North - - N/A   Clear
9:15 AM 57.2 °F 32.0 °F 38% 29.96 in 10.0 mi North - - N/A   Clear
9:35 AM 59.0 °F 32.0 °F 36% 29.97 in 10.0 mi North - - N/A   Clear
9:55 AM 59.0 °F 32.0 °F 36% 29.97 in 10.0 mi North - - N/A   Clear
10:15 AM 60.8 °F 32.0 °F 34% 29.97 in 10.0 mi North - - N/A   Clear
10:35 AM 60.8 °F 32.0 °F 34% 29.97 in 10.0 mi North - - N/A   Clear
10:55 AM 60.8 °F 32.0 °F 34% 29.97 in 10.0 mi North - - N/A   Clear
11:15 AM 62.6 °F 33.8 °F 34% 29.97 in 10.0 mi North - - N/A   Clear
11:35 AM 64.4 °F 33.8 °F 32% 29.97 in 10.0 mi North - - N/A   Clear
11:55 AM 64.4 °F 35.6 °F 34% 29.97 in 10.0 mi North - - N/A   Clear
12:15 PM 64.4 °F 33.8 °F 32% 29.97 in 10.0 mi North - - N/A   Clear
12:35 PM 66.2 °F 33.8 °F 30% 29.96 in 10.0 mi North - - N/A   Clear
12:55 PM 68.0 °F 35.6 °F 30% 29.95 in 10.0 mi North - - N/A   Clear
1:15 PM 68.0 °F 35.6 °F 30% 29.95 in 10.0 mi North - - N/A   Clear
1:35 PM 69.8 °F 35.6 °F 28% 29.94 in 10.0 mi North - - N/A   Clear
1:55 PM 69.8 °F 35.6 °F 28% 29.92 in 10.0 mi North - - N/A   Clear
2:15 PM 69.8 °F 35.6 °F 28% 29.91 in 10.0 mi WNW 10.4 mph - N/A   Clear
2:35 PM 69.8 °F 33.8 °F 27% 29.91 in 10.0 mi North - - N/A   Clear
2:55 PM 71.6 °F 33.8 °F 25% 29.90 in 10.0 mi North - - N/A   Clear
3:15 PM 71.6 °F 35.6 °F 27% 29.90 in 10.0 mi North - - N/A   Clear
3:35 PM 71.6 °F 33.8 °F 25% 29.89 in 10.0 mi North - - N/A   Clear
3:55 PM 71.6 °F 32.0 °F 23% 29.88 in 10.0 mi North - - N/A   Clear
4:15 PM 71.6 °F 33.8 °F 25% 29.88 in 10.0 mi North - - N/A   Clear
4:35 PM 71.6 °F 32.0 °F 23% 29.87 in 10.0 mi North - - N/A   Clear
4:55 PM 71.6 °F 32.0 °F 23% 29.87 in 10.0 mi WNW 9.2 mph - N/A   Clear
5:15 PM 71.6 °F 33.8 °F 25% 29.87 in 10.0 mi WNW 9.2 mph - N/A   Clear
5:35 PM 71.6 °F 32.0 °F 23% 29.87 in 10.0 mi WNW 6.9 mph - N/A   Clear
5:55 PM 69.8 °F 35.6 °F 28% 29.86 in 10.0 mi WSW 3.5 mph - N/A   Clear
6:15 PM 68.0 °F 35.6 °F 30% 29.86 in 10.0 mi WSW 3.5 mph - N/A   Clear
6:35 PM 66.2 °F 35.6 °F 32% 29.86 in 10.0 mi SW 3.5 mph - N/A   Clear
6:55 PM 64.4 °F 35.6 °F 34% 29.86 in 10.0 mi SW 3.5 mph - N/A   Clear
7:15 PM 60.8 °F 37.4 °F 42% 29.86 in 10.0 mi Calm Calm - N/A   Clear
7:35 PM 62.6 °F 33.8 °F 34% 29.86 in 10.0 mi SSW 3.5 mph - N/A   Clear
7:55 PM 62.6 °F 33.8 °F 34% 29.86 in 10.0 mi SSW 3.5 mph - N/A   Clear
8:15 PM 60.8 °F 33.8 °F 36% 29.86 in 10.0 mi SSW 4.6 mph - N/A   Clear
8:35 PM 60.8 °F 33.8 °F 36% 29.87 in 10.0 mi South 4.6 mph - N/A   Clear
8:55 PM 59.0 °F 33.8 °F 39% 29.87 in 10.0 mi South 5.8 mph - N/A   Clear
9:15 PM 60.8 °F 33.8 °F 36% 29.87 in 10.0 mi South 5.8 mph - N/A   Clear
9:35 PM 59.0 °F 33.8 °F 39% 29.87 in 10.0 mi South 4.6 mph - N/A   Clear
9:55 PM 57.2 °F 33.8 °F 41% 29.87 in 10.0 mi South 5.8 mph - N/A   Clear
10:15 PM 57.2 °F 33.8 °F 41% 29.87 in 10.0 mi South 4.6 mph - N/A   Clear
10:35 PM 55.4 °F 33.8 °F 44% 29.87 in 10.0 mi South 5.8 mph - N/A   Clear
10:55 PM 55.4 °F 35.6 °F 47% 29.86 in 10.0 mi South 5.8 mph - N/A   Clear
11:15 PM 55.4 °F 35.6 °F 47% 29.86 in 10.0 mi South 5.8 mph - N/A   Clear
11:35 PM 55.4 °F 35.6 °F 47% 29.86 in 10.0 mi South 4.6 mph - N/A   Clear
11:55 PM 50.0 °F 39.2 °F 66% 29.86 in 10.0 mi South 4.6 mph - N/A   Clear